When you browse on this site, cookies collect data to enhance your experience and personalize the content and advertising you see.
Visit our Privacy Policy to learn more. By continuing to use the site, you agree to this use of cookies and data.
  • In Latvia
  • List of Countries
  • For 7 days
  • Water Temperature
  • Weather Map
  • Weather Widgets
  • user-avatar
    Login

    Hourly Weather Galuzino

    Today, 21 February, Friday

    Time Temperature Precipitation Wind Pressure Humidity
    00:00 -1°C° 0 mm 2 mps 749 mmHg 93%
    01:00 -1°C° 0 mm 2 mps 749 mmHg 93%
    02:00 -1°C° 0 mm 2 mps 749 mmHg 94%
    03:00 -1°C° 0 mm 2 mps 749 mmHg 92%
    04:00 -1°C° 0 mm 2 mps 748 mmHg 90%
    05:00 -1°C° 0 mm 2 mps 748 mmHg 88%
    06:00 -1°C° 0 mm 3 mps 748 mmHg 86%
    07:00 -1°C° 0 mm 3 mps 748 mmHg 84%
    08:00 -1°C° 0 mm 3 mps 748 mmHg 81%
    15:00 +2°C° 0 mm 5 mps 747 mmHg 69%
    16:00 +1°C° 0 mm 4 mps 747 mmHg 72%
    17:00 0°C° 0 mm 4 mps 747 mmHg 74%
    18:00 0°C° 0 mm 4 mps 747 mmHg 76%
    19:00 0°C° 0 mm 4 mps 748 mmHg 77%
    20:00 0°C° 0 mm 4 mps 748 mmHg 78%
    21:00 -1°C° 0 mm 4 mps 748 mmHg 78%
    22:00 -1°C° 0 mm 4 mps 748 mmHg 79%
    23:00 -1°C° 0 mm 4 mps 748 mmHg 80%

    Tomorrow, 22 February, Saturday

    Time Temperature Precipitation Wind Pressure Humidity
    00:00 -1°C° 0 mm 4 mps 748 mmHg 84%
    01:00 -1°C° 0 mm 4 mps 748 mmHg 89%
    02:00 -1°C° 0 mm 4 mps 749 mmHg 93%
    03:00 -1°C° 0 mm 4 mps 748 mmHg 93%
    04:00 -1°C° 0 mm 4 mps 748 mmHg 92%
    05:00 -1°C° 0 mm 4 mps 748 mmHg 92%
    06:00 -1°C° 0 mm 4 mps 748 mmHg 90%
    07:00 -1°C° 0 mm 4 mps 748 mmHg 89%
    08:00 -1°C° 0 mm 5 mps 748 mmHg 87%
    09:00 0°C° 0 mm 5 mps 748 mmHg 85%
    10:00 0°C° 0 mm 5 mps 748 mmHg 82%
    11:00 0°C° 0 mm 5 mps 747 mmHg 80%
    12:00 +1°C° 0 mm 6 mps 746 mmHg 78%
    13:00 +1°C° 0 mm 6 mps 746 mmHg 77%
    14:00 +1°C° 0 mm 6 mps 745 mmHg 75%
    15:00 +2°C° 0.1 mm 7 mps 744 mmHg 75%
    16:00 +2°C° 0.1 mm 7 mps 742 mmHg 75%
    17:00 +2°C° 0.1 mm 7 mps 741 mmHg 75%
    18:00 0°C° 0.8 mm 8 mps 740 mmHg 81%
    19:00 0°C° 0.8 mm 9 mps 738 mmHg 87%
    20:00 -2°C° 0.8 mm 10 mps 737 mmHg 92%
    21:00 -1°C° 0.8 mm 9 mps 736 mmHg 92%
    22:00 0°C° 0.8 mm 9 mps 734 mmHg 92%
    23:00 0°C° 0.8 mm 9 mps 733 mmHg 92%

    Day after tomorrow, 23 February, Sunday

    Time Temperature Precipitation Wind Pressure Humidity
    00:00 0°C° 0.4 mm 8 mps 732 mmHg 90%
    01:00 0°C° 0.4 mm 7 mps 732 mmHg 89%
    02:00 +2°C° 0.4 mm 7 mps 732 mmHg 87%
    03:00 +1°C° 0.7 mm 6 mps 731 mmHg 84%
    04:00 +1°C° 0.7 mm 6 mps 731 mmHg 81%
    05:00 0°C° 0.7 mm 5 mps 731 mmHg 78%
    06:00 0°C° 0 mm 5 mps 731 mmHg 78%
    07:00 0°C° 0 mm 5 mps 732 mmHg 77%
    08:00 -1°C° 0 mm 5 mps 732 mmHg 77%
    09:00 -1°C° 0 mm 6 mps 732 mmHg 75%
    10:00 -1°C° 0 mm 6 mps 732 mmHg 73%
    11:00 +1°C° 0 mm 6 mps 732 mmHg 71%
    12:00 +1°C° 0.1 mm 6 mps 732 mmHg 75%
    13:00 +1°C° 0.1 mm 6 mps 732 mmHg 79%
    14:00 +1°C° 0.1 mm 6 mps 732 mmHg 83%
    15:00 -1°C° 0.1 mm 6 mps 732 mmHg 85%
    16:00 -1°C° 0.1 mm 6 mps 731 mmHg 87%
    17:00 -1°C° 0.1 mm 6 mps 731 mmHg 89%
    18:00 -1°C° 0.2 mm 6 mps 731 mmHg 89%
    19:00 -1°C° 0.2 mm 6 mps 731 mmHg 90%
    20:00 -1°C° 0.2 mm 6 mps 731 mmHg 90%
    21:00 -1°C° 0 mm 6 mps 730 mmHg 90%
    22:00 -2°C° 0 mm 6 mps 730 mmHg 89%
    23:00 -1°C° 0 mm 5 mps 730 mmHg 89%

    24 February, Monday

    Time Temperature Precipitation Wind Pressure Humidity
    00:00 -1°C° 0.1 mm 5 mps 730 mmHg 91%
    01:00 -1°C° 0.1 mm 5 mps 730 mmHg 93%
    02:00 -1°C° 0.1 mm 4 mps 729 mmHg 95%
    03:00 -1°C° 0.1 mm 4 mps 729 mmHg 95%
    04:00 -1°C° 0.1 mm 4 mps 729 mmHg 96%
    05:00 0°C° 0.1 mm 3 mps 729 mmHg 96%
    06:00 0°C° 0.2 mm 3 mps 730 mmHg 95%
    07:00 0°C° 0.2 mm 3 mps 730 mmHg 94%
    08:00 0°C° 0.2 mm 3 mps 731 mmHg 93%
    09:00 0°C° 0.1 mm 4 mps 732 mmHg 85%
    10:00 0°C° 0.1 mm 5 mps 733 mmHg 76%
    11:00 -1°C° 0.1 mm 6 mps 734 mmHg 67%
    12:00 -1°C° 0 mm 6 mps 734 mmHg 65%
    13:00 -1°C° 0 mm 6 mps 735 mmHg 63%
    14:00 -1°C° 0 mm 6 mps 736 mmHg 61%
    15:00 -1°C° 0 mm 6 mps 736 mmHg 61%
    16:00 -1°C° 0 mm 5 mps 737 mmHg 61%
    17:00 -1°C° 0 mm 5 mps 737 mmHg 61%
    18:00 -1°C° 0 mm 5 mps 738 mmHg 62%
    19:00 -2°C° 0 mm 5 mps 738 mmHg 64%
    20:00 -2°C° 0 mm 5 mps 739 mmHg 66%
    21:00 -3°C° 0 mm 4 mps 739 mmHg 67%
    22:00 -3°C° 0 mm 4 mps 739 mmHg 68%
    23:00 -2°C° 0 mm 3 mps 740 mmHg 69%

    25 February, Tuesday

    Time Temperature Precipitation Wind Pressure Humidity
    00:00 -2°C° 0 mm 3 mps 740 mmHg 72%
    01:00 -2°C° 0 mm 3 mps 740 mmHg 74%
    02:00 -2°C° 0 mm 3 mps 740 mmHg 76%
    03:00 -2°C° 0 mm 2 mps 739 mmHg 78%
    04:00 -3°C° 0 mm 2 mps 739 mmHg 80%
    05:00 -3°C° 0 mm 2 mps 739 mmHg 82%
    06:00 -2°C° 0 mm 2 mps 738 mmHg 81%
    07:00 -2°C° 0 mm 3 mps 738 mmHg 81%
    08:00 -2°C° 0 mm 3 mps 738 mmHg 80%
    09:00 -1°C° 0 mm 3 mps 737 mmHg 79%
    10:00 0°C° 0 mm 3 mps 737 mmHg 78%
    11:00 0°C° 0 mm 3 mps 736 mmHg 77%
    12:00 0°C° 0 mm 3 mps 735 mmHg 80%
    13:00 -1°C° 0 mm 4 mps 735 mmHg 83%
    14:00 -1°C° 0 mm 4 mps 734 mmHg 85%
    15:00 -1°C° 0.2 mm 4 mps 733 mmHg 89%
    16:00 -1°C° 0.2 mm 5 mps 732 mmHg 92%
    17:00 -1°C° 0.2 mm 5 mps 731 mmHg 96%
    18:00 -1°C° 0.6 mm 4 mps 730 mmHg 96%
    19:00 -1°C° 0.6 mm 4 mps 730 mmHg 97%
    20:00 +1°C° 0.6 mm 3 mps 729 mmHg 97%
    21:00 +1°C° 0.2 mm 3 mps 729 mmHg 96%
    22:00 +1°C° 0.2 mm 3 mps 729 mmHg 95%
    23:00 0°C° 0.2 mm 3 mps 729 mmHg 94%

    26 February, Wednesday

    Time Temperature Precipitation Wind Pressure Humidity
    00:00 0°C° 0 mm 3 mps 728 mmHg 94%
    01:00 0°C° 0 mm 3 mps 728 mmHg 93%
    02:00 -1°C° 0 mm 3 mps 728 mmHg 93%
    03:00 -1°C° 0 mm 3 mps 728 mmHg 93%
    04:00 -1°C° 0 mm 3 mps 728 mmHg 93%
    05:00 -1°C° 0 mm 3 mps 728 mmHg 94%
    06:00 -1°C° 0.1 mm 3 mps 728 mmHg 93%
    07:00 -2°C° 0.1 mm 4 mps 728 mmHg 92%
    08:00 -1°C° 0.1 mm 4 mps 728 mmHg 92%
    09:00 -1°C° 0 mm 4 mps 728 mmHg 88%
    10:00 -1°C° 0 mm 4 mps 728 mmHg 85%
    11:00 0°C° 0 mm 4 mps 728 mmHg 81%
    12:00 0°C° 0 mm 4 mps 728 mmHg 81%
    13:00 0°C° 0 mm 4 mps 728 mmHg 81%
    14:00 0°C° 0 mm 5 mps 728 mmHg 81%
    15:00 0°C° 0 mm 4 mps 729 mmHg 81%
    16:00 +1°C° 0 mm 3 mps 729 mmHg 82%
    17:00 0°C° 0 mm 3 mps 729 mmHg 82%
    18:00 0°C° 0 mm 3 mps 730 mmHg 83%
    19:00 0°C° 0 mm 3 mps 730 mmHg 84%
    20:00 0°C° 0 mm 3 mps 730 mmHg 84%
    21:00 0°C° 0 mm 3 mps 730 mmHg 85%
    22:00 -1°C° 0 mm 2 mps 730 mmHg 85%
    23:00 -1°C° 0 mm 2 mps 731 mmHg 86%
    Show more